CW3474 Weather Reports


Display with metric or nautical units.
time (UTC)temp
F
wind
direction
speed
MPH
gust
MPH
rain 1hr
in
rain 24hr
in
rain mn
in
humidity
%
barometer
mb
20190720013003 80 90 0.0 3.0 0.00 0.00 0.00 25 1016.9
20190720012502 80 90 1.0 6.0 0.00 0.00 0.00 24 1016.7
20190720012002 81 90 1.0 6.0 0.00 0.00 0.00 23 1016.7
20190720011503 82 90 0.0 5.0 0.00 0.00 0.00 23 1016.7
20190720011002 82 94 1.0 9.0 0.00 0.00 0.00 23 1016.7
20190720010503 83 100 1.0 9.0 0.00 0.00 0.00 22 1016.6
20190720010003 83 108 1.0 9.0 0.00 0.00 0.00 22 1016.6
20190720005503 83 117 2.0 12.0 0.00 0.00 0.00 23 1016.7
20190720005003 83 113 3.0 12.0 0.00 0.00 0.00 21 1016.5
20190720004502 84 107 3.0 10.0 0.00 0.00 0.00 22 1016.5
20190720004003 84 118 2.0 8.0 0.00 0.00 0.00 22 1016.5
20190720003502 84 139 2.0 7.0 0.00 0.00 0.00 21 1016.7
20190720003002 84 104 2.0 8.0 0.00 0.00 0.00 22 1016.6
20190720002503 84 109 2.0 8.0 0.00 0.00 0.00 22 1016.7
20190720002003 85 112 3.0 9.0 0.00 0.00 0.00 22 1016.6
20190720001503 85 105 4.0 11.0 0.00 0.00 0.00 20 1016.4
20190720001002 85 102 3.0 11.0 0.00 0.00 0.00 22 1016.6
20190720000503 85 107 3.0 11.0 0.00 0.00 0.00 21 1016.6
20190720000003 86 107 2.0 12.0 0.00 0.00 0.00 22 1016.6
20190719235502 86 116 2.0 11.0 0.00 0.00 0.00 21 1016.8
20190719235003 86 143 1.0 8.0 0.00 0.00 0.00 20 1016.6
20190719234503 85 145 1.0 8.0 0.00 0.00 0.00 21 1016.8
20190719234003 85 130 1.0 7.0 0.00 0.00 0.00 22 1016.9
20190719233503 86 132 2.0 9.0 0.00 0.00 0.00 21 1017.0
20190719233003 87 126 2.0 9.0 0.00 0.00 0.00 20 1017.0
20190719232503 87 108 1.0 8.0 0.00 0.00 0.00 21 1016.9
20190719232003 87 145 1.0 9.0 0.00 0.00 0.00 22 1017.1
20190719231503 86 145 2.0 9.0 0.00 0.00 0.00 21 1017.0
20190719231002 86 136 1.0 6.0 0.00 0.00 0.00 20 1017.0
20190719230503 86 171 1.0 8.0 0.00 0.00 0.00 21 1017.0
20190719230002 87 170 2.0 8.0 0.00 0.00 0.00 21 1017.1
20190719225502 88 157 3.0 9.0 0.00 0.00 0.00 19 1017.1
20190719225003 88 145 2.0 9.0 0.00 0.00 0.00 20 1017.2
20190719224502 88 158 3.0 12.0 0.00 0.00 0.00 20 1017.2
20190719224002 88 161 3.0 12.0 0.00 0.00 0.00 19 1017.2
20190719223503 87 145 1.0 8.0 0.00 0.00 0.00 20 1017.1
20190719223003 87 139 1.0 10.0 0.00 0.00 0.00 21 1017.1
20190719222503 87 109 3.0 10.0 0.00 0.00 0.00 20 1017.3
20190719222002 87 102 2.0 9.0 0.00 0.00 0.00 21 1017.1
20190719221503 88 146 1.0 11.0 0.00 0.00 0.00 20 1017.1
20190719221003 88 124 2.0 11.0 0.00 0.00 0.00 20 1017.2
20190719220502 87 111 2.0 13.0 0.00 0.00 0.00 20 1017.2
20190719220002 88 119 2.0 13.0 0.00 0.00 0.00 21 1017.2
20190719215503 87 139 2.0 9.0 0.00 0.00 0.00 22 1017.3
20190719215003 88 133 2.0 9.0 0.00 0.00 0.00 19 1017.3
20190719214503 87 104 2.0 10.0 0.00 0.00 0.00 21 1017.1
20190719214003 87 103 2.0 10.0 0.00 0.00 0.00 21 1017.3
20190719213503 88 117 1.0 9.0 0.00 0.00 0.00 21 1017.5
20190719213003 88 153 2.0 9.0 0.00 0.00 0.00 20 1017.3
20190719212502 88 142 3.0 9.0 0.00 0.00 0.00 21 1017.4
20190719212002 88 122 2.0 8.0 0.00 0.00 0.00 20 1017.4
20190719211502 87 137 3.0 11.0 0.00 0.00 0.00 21 1017.7
20190719211002 87 129 3.0 11.0 0.00 0.00 0.00 20 1017.8
20190719210503 86 103 3.0 11.0 0.00 0.00 0.00 20 1017.9
20190719210003 87 101 2.0 9.0 0.00 0.00 0.00 20 1017.8
20190719205503 87 100 2.0 10.0 0.00 0.00 0.00 22 1017.9
20190719205003 86 82 3.0 11.0 0.00 0.00 0.00 22 1017.7
20190719204503 86 68 3.0 11.0 0.00 0.00 0.00 25 1018.0
20190719204003 86 77 4.0 9.0 0.00 0.00 0.00 24 1018.2
20190719203502 86 91 3.0 13.0 0.00 0.00 0.00 24 1018.0
20190719203003 86 111 2.0 13.0 0.00 0.00 0.00 24 1018.2
20190719202502 86 129 2.0 8.0 0.00 0.00 0.00 22 1018.0
20190719202002 86 116 2.0 13.0 0.00 0.00 0.00 21 1018.1
20190719201503 86 106 3.0 13.0 0.00 0.00 0.00 23 1018.4
20190719201002 86 96 3.0 13.0 0.00 0.00 0.00 21 1018.3
20190719200503 86 97 3.0 10.0 0.00 0.00 0.00 25 1018.5
20190719200003 86 97 2.0 11.0 0.00 0.00 0.00 26 1018.4
20190719195504 86 91 2.0 11.0 0.00 0.00 0.00 25 1018.6
20190719195002 86 94 3.0 13.0 0.00 0.00 0.00 24 1018.6
20190719194503 86 99 3.0 13.0 0.00 0.00 0.00 22 1018.4
20190719194003 86 106 2.0 10.0 0.00 0.00 0.00 25 1018.7
20190719193503 86 119 2.0 10.0 0.00 0.00 0.00 22 1018.5
20190719193003 86 132 3.0 14.0 0.00 0.00 0.00 21 1018.9
20190719192503 87 152 3.0 14.0 0.00 0.00 0.00 22 1018.7
20190719192003 87 161 2.0 10.0 0.00 0.00 0.00 22 1018.7
20190719191502 86 130 1.0 9.0 0.00 0.00 0.00 20 1018.7
20190719191002 87 139 1.0 9.0 0.00 0.00 0.00 20 1018.7
20190719190503 87 116 1.0 10.0 0.00 0.00 0.00 22 1018.9
20190719190003 86 109 1.0 10.0 0.00 0.00 0.00 21 1018.8
20190719185503 86 115 1.0 8.0 0.00 0.00 0.00 23 1019.0
20190719185003 85 98 1.0 10.0 0.00 0.00 0.00 22 1018.9
20190719184503 85 86 2.0 10.0 0.00 0.00 0.00 24 1019.4
20190719184002 86 90 2.0 9.0 0.00 0.00 0.00 24 1019.5
20190719183502 86 99 2.0 11.0 0.00 0.00 0.00 23 1019.3
20190719183003 86 97 1.0 11.0 0.00 0.00 0.00 23 1019.5
20190719182503 86 88 1.0 6.0 0.00 0.00 0.00 23 1019.4
20190719182003 84 85 1.0 7.0 0.00 0.00 0.00 21 1019.4
20190719181503 84 86 1.0 7.0 0.00 0.00 0.00 21 1019.2
20190719181002 84 89 1.0 7.0 0.00 0.00 0.00 23 1019.6
20190719180502 84 90 1.0 7.0 0.00 0.00 0.00 21 1019.7
20190719180003 84 92 0.0 7.0 0.00 0.00 0.00 23 1019.4
20190719175502 83 89 1.0 7.0 0.00 0.00 0.00 24 1019.2
20190719175002 83 87 2.0 8.0 0.00 0.00 0.00 22 1019.1
20190719174502 83 87 2.0 8.0 0.00 0.00 0.00 23 1019.2
20190719174002 83 82 1.0 7.0 0.00 0.00 0.00 23 1019.3
20190719173503 84 70 1.0 8.0 0.00 0.00 0.00 23 1019.3
20190719173002 84 69 1.0 8.0 0.00 0.00 0.00 23 1019.3
20190719172503 84 65 0.0 5.0 0.00 0.00 0.00 23 1020.1
20190719172003 85 65 0.0 5.0 0.00 0.00 0.00 25 1020.1
20190719171503 84 66 0.0 5.0 0.00 0.00 0.00 22 1019.5
20190719171003 84 67 0.0 7.0 0.00 0.00 0.00 24 1019.3
20190719170503 84 69 0.0 7.0 0.00 0.00 0.00 20 1019.1
20190719170003 84 72 0.0 5.0 0.00 0.00 0.00 25 1019.5
20190719165502 83 72 0.0 4.0 0.00 0.00 0.00 25 1019.6
20190719165002 83 70 1.0 7.0 0.00 0.00 0.00 21 1019.3
20190719164503 82 73 1.0 7.0 0.00 0.00 0.00 22 1019.4
20190719164002 82 100 1.0 5.0 0.00 0.00 0.00 23 1019.9
20190719163502 82 134 1.0 4.0 0.00 0.00 0.00 24 1019.8
20190719163002 82 138 0.0 5.0 0.00 0.00 0.00 25 1019.7
20190719162504 81 146 0.0 5.0 0.00 0.00 0.00 25 1019.9
20190719162003 81 191 0.0 1.0 0.00 0.00 0.00 22 1019.5
20190719161504 81 191 0.0 3.0 0.00 0.00 0.00 22 1019.5
20190719161002 80 191 0.0 3.0 0.00 0.00 0.00 21 1019.8
20190719160503 80 189 0.0 4.0 0.00 0.00 0.00 23 1019.7
20190719160003 80 183 1.0 6.0 0.00 0.00 0.00 21 1019.8
20190719155503 80 181 1.0 6.0 0.00 0.00 0.00 23 1019.6
20190719155003 80 178 0.0 4.0 0.00 0.00 0.00 24 1019.6
20190719154503 80 178 0.0 3.0 0.00 0.00 0.00 25 1019.9
20190719154003 80 173 1.0 5.0 0.00 0.00 0.00 22 1019.8
20190719153503 80 172 1.0 5.0 0.00 0.00 0.00 21 1019.8
20190719153003 80 169 0.0 5.0 0.00 0.00 0.00 22 1019.8
20190719152503 80 168 0.0 4.0 0.00 0.00 0.00 23 1019.9
20190719152003 80 168 0.0 1.0 0.00 0.00 0.00 22 1019.9
20190719151503 80 162 1.0 5.0 0.00 0.00 0.00 22 1019.9
20190719151002 79 160 1.0 5.0 0.00 0.00 0.00 24 1020.0
20190719150503 80 148 1.0 5.0 0.00 0.00 0.00 23 1019.9
20190719150003 80 145 0.0 5.0 0.00 0.00 0.00 26 1020.1
20190719145503 80 134 0.0 5.0 0.00 0.00 0.00 24 1020.2
20190719145002 79 133 0.0 5.0 0.00 0.00 0.00 24 1020.1
20190719144503 79 124 0.0 6.0 0.00 0.00 0.00 25 1020.0
20190719144003 78 124 0.0 6.0 0.00 0.00 0.00 26 1019.9
20190719143503 77 118 0.0 1.0 0.00 0.00 0.00 27 1020.2
20190719143002 76 118 0.0 3.0 0.00 0.00 0.00 28 1019.5
20190719142503 75 119 0.0 3.0 0.00 0.00 0.00 29 1019.6
20190719142003 74 118 0.0 2.0 0.00 0.00 0.00 30 1019.6
20190719141504 73 118 0.0 1.0 0.00 0.00 0.00 31 1019.6
20190719141002 72 118 0.0 3.0 0.00 0.00 0.00 30 1019.3
20190719140503 71 118 0.0 3.0 0.00 0.00 0.00 31 1019.3
20190719140003 70 117 0.0 2.0 0.00 0.00 0.00 31 1019.3
20190719135503 70 117 0.0 2.0 0.00 0.00 0.00 33 1019.3
20190719135003 69 117 0.0 1.0 0.00 0.00 0.00 32 1019.3
20190719134503 69 117 0.0 1.0 0.00 0.00 0.00 31 1019.4
20190719134003 68 117 0.0 1.0 0.00 0.00 0.00 31 1019.2
20190719133503 68 117 0.0 1.0 0.00 0.00 0.00 31 1019.2
20190719133003 67 117 0.0 2.0 0.00 0.00 0.00 30 1019.0
20190719132503 67 117 0.0 2.0 0.00 0.00 0.00 32 1019.1
20190719132003 67 110 1.0 7.0 0.00 0.00 0.00 31 1019.0
20190719131503 66 110 1.0 7.0 0.00 0.00 0.00 31 1018.9
20190719131003 66 110 1.0 7.0 0.00 0.00 0.00 32 1018.9
20190719130503 66 110 1.0 7.0 0.00 0.00 0.00 31 1019.0
20190719130003 65 110 1.0 7.0 0.00 0.00 0.00 33 1018.9
20190719125503 65 110 1.0 7.0 0.00 0.00 0.00 33 1019.0
20190719125003 65 110 1.0 7.0 0.00 0.00 0.00 33 1019.0
20190719124502 64 110 1.0 7.0 0.00 0.00 0.00 33 1019.0
20190719124003 64 110 1.0 7.0 0.00 0.00 0.00 33 1018.9
20190719123502 64 110 1.0 7.0 0.00 0.00 0.00 33 1018.9
20190719123003 64 110 1.0 7.0 0.00 0.00 0.00 33 1018.7
20190719122502 64 110 1.0 7.0 0.00 0.00 0.00 32 1018.8
20190719122003 64 110 1.0 7.0 0.00 0.00 0.00 32 1018.8
20190719121502 64 110 1.0 7.0 0.00 0.00 0.00 31 1018.7
20190719121003 64 110 1.0 7.0 0.00 0.00 0.00 31 1018.7
20190719120503 64 110 1.0 7.0 0.00 0.00 0.00 30 1018.7
20190719120003 64 110 1.0 7.0 0.00 0.00 0.00 30 1018.8
20190719115503 64 110 1.0 7.0 0.00 0.00 0.00 30 1018.8
20190719115004 64 110 1.0 7.0 0.00 0.00 0.00 30 1018.8
20190719114503 64 110 1.0 7.0 0.00 0.00 0.00 29 1018.6
20190719114003 65 110 1.0 7.0 0.00 0.00 0.00 29 1018.7
20190719113503 65 110 1.0 7.0 0.00 0.00 0.00 29 1018.7
20190719113003 65 110 1.0 7.0 0.00 0.00 0.00 30 1018.5
20190719112503 64 110 1.0 7.0 0.00 0.00 0.00 30 1018.5
20190719112004 64 110 1.0 7.0 0.00 0.00 0.00 29 1018.3
20190719111503 64 110 1.0 7.0 0.00 0.00 0.00 29 1018.3
20190719111003 64 110 1.0 7.0 0.00 0.00 0.00 30 1018.4
20190719110503 64 110 1.0 7.0 0.00 0.00 0.00 30 1018.3
20190719110003 64 110 1.0 7.0 0.00 0.00 0.00 29 1017.8
20190719105503 64 110 1.0 7.0 0.00 0.00 0.00 30 1018.1
20190719105003 64 110 1.0 7.0 0.00 0.00 0.00 29 1018.0
20190719104503 64 110 1.0 7.0 0.00 0.00 0.00 30 1018.1
20190719104003 65 110 1.0 7.0 0.00 0.00 0.00 29 1018.0
20190719103503 65 110 1.0 7.0 0.00 0.00 0.00 29 1018.0
20190719103002 64 110 1.0 7.0 0.00 0.00 0.00 29 1017.8
20190719102503 64 110 1.0 7.0 0.00 0.00 0.00 30 1018.1
20190719102003 64 110 1.0 7.0 0.00 0.00 0.00 31 1018.2
20190719101503 64 110 1.0 7.0 0.00 0.00 0.00 30 1018.1
20190719101003 65 110 1.0 7.0 0.00 0.00 0.00 30 1018.1
20190719100503 65 110 1.0 7.0 0.00 0.00 0.00 30 1018.2
20190719100002 65 110 1.0 7.0 0.00 0.00 0.00 29 1018.0
20190719095502 64 110 1.0 7.0 0.00 0.00 0.00 28 1017.9
20190719095002 64 110 1.0 7.0 0.00 0.00 0.00 29 1017.9
20190719094503 64 110 1.0 7.0 0.00 0.00 0.00 29 1017.9
20190719094002 64 110 1.0 7.0 0.00 0.00 0.00 29 1018.1
20190719093504 64 110 1.0 7.0 0.00 0.00 0.00 29 1018.2
20190719093002 63 110 1.0 7.0 0.00 0.00 0.00 31 1018.2
20190719092503 63 110 1.0 7.0 0.00 0.00 0.00 31 1018.2
20190719092002 63 110 1.0 7.0 0.00 0.00 0.00 31 1018.2
20190719091503 63 110 1.0 7.0 0.00 0.00 0.00 32 1018.2
20190719091003 63 110 1.0 7.0 0.00 0.00 0.00 32 1018.1
20190719090503 63 110 1.0 7.0 0.00 0.00 0.00 32 1018.1
20190719090003 63 110 1.0 7.0 0.00 0.00 0.00 32 1018.1
20190719085503 63 110 1.0 7.0 0.00 0.00 0.00 33 1018.1
20190719085003 63 110 1.0 7.0 0.00 0.00 0.00 33 1018.1
20190719084503 63 110 1.0 7.0 0.00 0.00 0.00 33 1018.1
20190719084003 63 110 1.0 7.0 0.00 0.00 0.00 33 1018.1
20190719083503 63 110 1.0 7.0 0.00 0.00 0.00 33 1018.1
20190719083003 63 110 1.0 7.0 0.00 0.00 0.00 34 1018.0
20190719082503 63 110 1.0 7.0 0.00 0.00 0.00 34 1018.0
20190719082003 63 110 1.0 7.0 0.00 0.00 0.00 33 1018.0
20190719081503 63 110 1.0 7.0 0.00 0.00 0.00 33 1018.0
20190719081003 63 110 1.0 7.0 0.00 0.00 0.00 34 1018.0
20190719080503 64 110 1.0 7.0 0.00 0.00 0.00 34 1018.0
20190719080003 64 110 1.0 7.0 0.00 0.00 0.00 34 1018.0
20190719075503 64 110 1.0 7.0 0.00 0.00 0.00 34 1018.0
20190719075002 64 110 1.0 7.0 0.00 0.00 0.00 34 1018.0
20190719074505 64 110 1.0 7.0 0.00 0.00 0.00 34 1018.0
20190719074003 64 110 1.0 7.0 0.00 0.00 0.00 34 1018.0
20190719073503 64 110 1.0 7.0 0.00 0.00 0.00 34 1017.9
20190719073003 64 110 1.0 7.0 0.00 0.00 0.00 34 1017.9
20190719072503 65 110 1.0 7.0 0.00 0.00 0.00 33 1018.2
20190719072003 65 110 1.0 7.0 0.00 0.00 0.00 34 1018.3
20190719071503 65 110 1.0 7.0 0.00 0.00 0.00 34 1018.3
20190719071003 66 110 1.0 7.0 0.00 0.00 0.00 33 1018.4
20190719070503 66 110 1.0 7.0 0.00 0.00 0.00 34 1018.6
20190719070003 66 110 1.0 7.0 0.00 0.00 0.00 34 1018.4
20190719065503 66 110 1.0 7.0 0.00 0.00 0.00 33 1018.4
20190719065003 66 110 1.0 7.0 0.00 0.00 0.00 33 1018.4
20190719064503 66 110 1.0 7.0 0.00 0.00 0.00 33 1018.4
20190719064003 66 110 1.0 7.0 0.00 0.00 0.00 33 1018.4
20190719063503 66 110 1.0 7.0 0.00 0.00 0.00 34 1018.6
20190719063003 66 110 1.0 7.0 0.00 0.00 0.00 34 1018.3
20190719062503 66 110 1.0 7.0 0.00 0.00 0.00 34 1018.5
20190719062003 66 110 1.0 7.0 0.00 0.00 0.00 33 1018.3
20190719061503 66 110 1.0 7.0 0.00 0.00 0.00 34 1018.5
20190719061004 66 110 1.0 7.0 0.00 0.00 0.00 34 1018.6
20190719060503 66 110 1.0 7.0 0.00 0.00 0.00 34 1018.6
20190719060003 67 110 1.0 7.0 0.00 0.00 0.00 34 1018.6
20190719055504 67 110 1.0 7.0 0.00 0.00 0.00 34 1018.5
20190719055002 67 110 1.0 7.0 0.00 0.00 0.00 34 1018.5
20190719054503 68 110 1.0 7.0 0.00 0.00 0.00 33 1018.6
20190719054002 67 110 1.0 7.0 0.00 0.00 0.00 33 1018.6
20190719053503 67 110 1.0 7.0 0.00 0.00 0.00 33 1018.6
20190719053002 67 110 1.0 7.0 0.00 0.00 0.00 33 1018.6
20190719052503 68 110 1.0 7.0 0.00 0.00 0.00 33 1018.6
20190719052003 68 110 1.0 7.0 0.00 0.00 0.00 33 1018.6
20190719051503 68 110 1.0 7.0 0.00 0.00 0.00 33 1018.6
20190719051003 68 110 1.0 7.0 0.00 0.00 0.00 32 1018.6
20190719050503 69 110 1.0 7.0 0.00 0.00 0.00 32 1018.6
20190719050003 69 110 1.0 7.0 0.00 0.00 0.00 31 1018.6
20190719045503 69 110 1.0 7.0 0.00 0.00 0.00 31 1018.7
20190719045003 70 110 1.0 7.0 0.00 0.00 0.00 30 1018.7
20190719044503 70 110 1.0 7.0 0.00 0.00 0.00 29 1018.6
20190719044003 70 110 1.0 7.0 0.00 0.00 0.00 29 1018.6
20190719043503 71 110 1.0 7.0 0.00 0.00 0.00 29 1018.6
20190719043003 71 110 1.0 7.0 0.00 0.00 0.00 29 1018.7
20190719042504 71 110 1.0 7.0 0.00 0.00 0.00 28 1018.7
20190719042002 71 110 1.0 7.0 0.00 0.00 0.00 29 1018.7
20190719041504 72 110 1.0 7.0 0.00 0.00 0.00 29 1018.7
20190719041003 72 110 1.0 7.0 0.00 0.00 0.00 29 1018.7
20190719040503 72 110 1.0 7.0 0.00 0.00 0.00 29 1018.7
20190719040002 73 110 1.0 7.0 0.00 0.00 0.00 28 1018.7
20190719035503 73 110 1.0 7.0 0.00 0.00 0.00 28 1018.6
20190719035003 74 110 1.0 7.0 0.00 0.00 0.00 27 1018.6
20190719034503 74 110 1.0 7.0 0.00 0.00 0.00 27 1018.4
20190719034003 75 110 1.0 7.0 0.00 0.00 0.00 26 1018.4
20190719033503 75 110 1.0 7.0 0.00 0.00 0.00 26 1018.4
20190719033002 75 110 1.0 7.0 0.00 0.00 0.00 26 1018.1
20190719032503 76 110 1.0 7.0 0.00 0.00 0.00 25 1018.1
20190719032002 76 110 1.0 7.0 0.00 0.00 0.00 25 1018.0
20190719031502 76 110 1.0 7.0 0.00 0.00 0.00 25 1018.0
20190719031003 77 110 1.0 7.0 0.00 0.00 0.00 24 1018.1
20190719030503 76 110 1.0 7.0 0.00 0.00 0.00 24 1018.1
20190719030002 76 110 1.0 7.0 0.00 0.00 0.00 24 1018.1
20190719025503 76 110 1.0 7.0 0.00 0.00 0.00 24 1018.0
20190719025003 76 110 1.0 7.0 0.00 0.00 0.00 24 1018.0
20190719024503 76 110 1.0 7.0 0.00 0.00 0.00 24 1017.9
20190719024003 76 110 1.0 7.0 0.00 0.00 0.00 24 1017.8
20190719023503 76 110 1.0 7.0 0.00 0.00 0.00 25 1017.9
20190719023003 76 110 1.0 7.0 0.00 0.00 0.00 25 1017.8
20190719022503 77 110 1.0 7.0 0.00 0.00 0.00 25 1017.8
20190719022002 77 110 1.0 7.0 0.00 0.00 0.00 25 1017.7
20190719021503 78 110 1.0 7.0 0.00 0.00 0.00 25 1017.7
20190719021003 78 110 1.0 7.0 0.00 0.00 0.00 24 1017.7
20190719020503 78 110 1.0 7.0 0.00 0.00 0.00 25 1017.7
20190719020003 78 111 1.0 7.0 0.00 0.00 0.00 24 1017.1
20190719015503 79 112 1.0 9.0 0.00 0.00 0.00 24 1017.1
20190719015003 79 111 1.0 9.0 0.00 0.00 0.00 24 1017.1
20190719014504 80 107 1.0 9.0 0.00 0.00 0.00 24 1017.2
20190719014003 80 108 2.0 9.0 0.00 0.00 0.00 23 1017.0
20190719013504 80 111 1.0 7.0 0.00 0.00 0.00 23 1017.0